Content
SEND FEEDBACK

Daily
Averages
Monthly
Summary
France

PORT-EN-BESSIN-HUPPAIN, FRANCE


Home > Europe > France
Elevation: 239 feet     Latitude: 49 21N     Longitude: 000 46W

WEATHER
 
SELECT A DAY
Number of Records: 227,051;   Date Range: 7/1/96 - 12/17/14
 
SHARE

PRINT THIS DATA

[ ← Previous Day ]
WEATHER ALMANAC - MAY 12, 2013
[ Next Day → ]
[ °C ]   °F
Weather ElementAverageHighLow
Temperature51 °F57.2 °F (1:30 pm)42.8 °F (6:30 am)
Dewpoint43.2 °F50 °F (11:00 pm)37.4 °F (11:30 am)
Humidity75.2 %94 % (11:00 pm)39 % (2:00 pm)
Barometer30.10 in30.16 in (2:00 pm)30.04 in (12:30 am)
Wind Speed13.8 mph18.4 mph (3:30 pm)
Wind Gust27.6 mph (12:30 am)
Weather ElementAverage
Visibility6.7 mi
Wind DirectionW (272.4 °)

Weather ElementTotal
Precipitation---
Heating Degree Days15 (Base 65)
Averaged from 51 records on May 12, 2013
WEATHER CONDITIONS BREAKOUT
WIND DIRECTION BREAKOUT
WEATHER BY HOUR - MAY 12, 2013
[ °C ]   °F
Local TimeTemperatureDewpointHumidityBarometerVisibilityWind DirectionWind SpeedGust SpeedPrecipitationEventsConditions
12:30 AM48.2 °F42.8 °F82 %30.04 inWest (280°)16.1 mph27.6 mphRainLight Rain
1:00 AM48.2 °F42.8 °F82 %30.04 in6.2 miWest (280°)12.7 mphMostly Cloudy
1:30 AM48.2 °F42.8 °F82 %30.04 in6.2 miWest (280°)13.8 mphMostly Cloudy
2:00 AM47.0 °F42.0 °F76 %30.06 in11.0 miWest (280°)13.8 mphClear
2:00 AM46.4 °F41.0 °F81 %30.04 in6.2 miWest (280°)12.7 mphPartly Cloudy
2:30 AM46.4 °F42.8 °F87 %30.06 in6.2 miWest (280°)12.7 mphScattered Clouds
3:00 AM46.4 °F42.8 °F87 %30.06 in6.2 miWest (280°)11.5 mphPartly Cloudy
3:30 AM46.4 °F42.8 °F87 %30.06 in6.2 miWest (280°)12.7 mphPartly Cloudy
4:00 AM46.4 °F41.0 °F81 %30.06 in6.2 miWest (280°)13.8 mph
4:30 AM44.6 °F41.0 °F87 %30.06 in6.2 miWest (280°)11.5 mph
5:00 AM44.6 °F41.0 °F87 %30.06 in6.2 miWest (270°)12.7 mph
5:30 AM44.6 °F41.0 °F87 %30.06 in6.2 miWest (270°)11.5 mph
6:00 AM44.6 °F41.0 °F87 %30.06 in6.2 miWest (280°)11.5 mph
6:30 AM42.8 °F41.0 °F93 %30.09 in6.2 miWest (260°)9.2 mph
7:00 AM44.6 °F41.0 °F87 %30.09 in6.2 miWest (260°)10.4 mph
7:30 AM46.4 °F42.8 °F87 %30.09 in6.2 miWest (270°)11.5 mph
8:00 AM47.0 °F43.0 °F81 %30.12 in9.0 miWest (270°)11.5 mphClear
8:00 AM46.4 °F42.8 °F87 %30.09 in6.2 miWest (270°)11.5 mph
8:30 AM48.2 °F42.8 °F82 %30.09 in6.2 miWest (270°)10.4 mph
9:00 AM50.0 °F44.6 °F82 %30.12 in6.2 miWest (280°)15.0 mphScattered Clouds
9:30 AM50.0 °F42.8 °F76 %30.12 in6.2 miWNW (290°)17.3 mphMostly Cloudy
10:00 AM50.0 °F41.0 °F71 %30.12 in6.2 miWNW (300°)12.7 mphMostly Cloudy
10:30 AM53.6 °F41.0 °F62 %30.12 in6.2 miWNW (290°)12.7 mphMostly Cloudy
11:00 AM53.6 °F42.8 °F67 %30.12 in6.2 miWNW (290°)11.5 mphMostly Cloudy
11:30 AM51.8 °F37.4 °F58 %30.15 in6.2 miWNW (300°)16.1 mphMostly Cloudy
12:00 PM55.4 °F41.0 °F58 %30.12 in6.2 miWNW (290°)15.0 mphMostly Cloudy
12:30 PM55.4 °F41.0 °F58 %30.12 in6.2 miWNW (290°)15.0 mphMostly Cloudy
1:00 PM55.4 °F41.0 °F58 %30.15 in6.2 miWNW (290°)13.8 mphMostly Cloudy
1:30 PM57.2 °F39.2 °F51 %30.15 in6.2 miWest (280°)17.3 mphMostly Cloudy
2:00 PM56.0 °F38.0 °F39 %30.16 in19.0 miWest (280°)15.0 mphMostly Cloudy
2:00 PM55.4 °F39.2 °F54 %30.15 in6.2 miWest (280°)15.0 mphMostly Cloudy
2:30 PM57.2 °F41.0 °F55 %30.15 in6.2 miWest (260°)17.3 mphOvercast
3:00 PM57.2 °F41.0 °F55 %30.12 in6.2 miWest (280°)13.8 mphMostly Cloudy
3:30 PM57.2 °F41.0 °F55 %30.12 in6.2 miWest (280°)18.4 mphOvercast
4:00 PM57.2 °F44.6 °F63 %30.12 in6.2 miWest (260°)17.3 mphOvercast
4:30 PM55.4 °F44.6 °F67 %30.12 in6.2 miWest (270°)16.1 mphOvercast
5:00 PM55.4 °F44.6 °F67 %30.12 in6.2 miWest (260°)16.1 mphOvercast
5:30 PM55.4 °F44.6 °F67 %30.12 in6.2 miWest (260°)16.1 mphOvercast
6:00 PM55.4 °F44.6 °F67 %30.12 in6.2 miWest (270°)18.4 mphOvercast
6:30 PM55.4 °F44.6 °F67 %30.09 in6.2 miWest (270°)17.3 mphOvercast
7:00 PM53.6 °F44.6 °F72 %30.09 in6.2 miWest (260°)15.0 mphOvercast
7:30 PM53.6 °F46.4 °F77 %30.09 in6.2 miWSW (250°)13.8 mphOvercast
8:00 PM53.0 °F47.0 °F75 %30.12 in12.0 miWSW (250°)11.5 mphClear
8:00 PM51.8 °F46.4 °F82 %30.09 in6.2 miWSW (250°)11.5 mphOvercast
8:30 PM53.6 °F48.2 °F82 %30.09 in6.2 miWSW (250°)11.5 mphMostly Cloudy
9:00 PM51.8 °F48.2 °F88 %30.09 in6.2 miWest (270°)12.7 mphOvercast
9:30 PM51.8 °F48.2 °F88 %30.09 in6.2 miWest (260°)11.5 mphOvercast
10:00 PM51.8 °F48.2 °F88 %30.09 in6.2 miWest (260°)13.8 mphOvercast
10:30 PM51.8 °F48.2 °F88 %30.12 in6.2 miWSW (250°)15.0 mphOvercast
11:00 PM51.8 °F50.0 °F94 %30.09 in6.2 miWSW (250°)16.1 mphOvercast
11:30 PM51.8 °F50.0 °F94 %30.09 in5.0 miWSW (250°)13.8 mphOvercast
Hourly data recorded from LFRK, located miles away from Port-en-Bessin-Huppain, France







STORIES FROM OUR PARTNERS